sat.trackr.live / text

‹ back to catalog

QIANFAN-61

NORAD 62791 · 2025-016G

PAYLOAD ACTIVE UNKNOWN

§ Identity

Operator
Country
PRC
Launch date
2025-01-23
Launch site
TAISC
Launch vehicle
Mass (kg)
RCS (m²)

External: N2YO · Heavens-Above · Gunter

§ Orbital elements

Epoch: 2026-05-25T02:56:29.291136Z

Period
106.59 min
Inclination
88.9780°
Eccentricity
0.0012679
Mean motion
13.51012194 rev/d
Perigee alt
1,059.1 km
Apogee alt
1,078.0 km
Semi-major
7,446.7 km
B*
1.5691e-4
RAAN
86.3711°
Arg perigee
225.9637°
Mean anomaly
134.0471°
Rev number
6,930

§ Raw data

QIANFAN-611 62791U 25016G   26145.12256124  .00000113  00000+0  15691-3 0  99992 62791  88.9780  86.3711 0012679 225.9637 134.0471 13.51012194 69307

JSON: /api/v1/satellites/62791 · /tle

For live sub-satellite position, see the globe view (requires WebGL).

§ Visibility from observer

Set your observer location to see the next 7 days of passes ≥ 10°. The values pass through the URL so the page stays shareable.

No JS? Fill the form by hand. The geolocation button needs JavaScript.